FW6553 Weather Reports


time (UTC)temp
F
wind
direction
speed
knots
gust
knots
rain 1hr
in
rain 24hr
in
rain mn
in
humidity
%
barometer
mb
20200531075740 50 195 1.7 13.9 0.00 0.00 0.00 76 1013.8
20200531074741 50 189 4.3 8.7 0.00 0.00 0.00 76 1013.5
20200531073740 50 197 3.5 9.6 0.00 0.00 0.00 75 1013.4
20200531072740 50 238 0.0 9.6 0.00 0.00 0.00 76 1013.6
20200531071740 50 225 0.9 6.1 0.00 0.00 0.00 76 1013.5
20200531070740 50 161 1.7 11.3 0.00 0.00 0.00 76 1013.6
20200531065740 51 197 5.2 7.8 0.00 0.00 0.08 76 1013.6
20200531064740 51 169 0.9 7.8 0.00 0.00 0.08 76 1013.7
20200531063740 51 199 1.7 10.4 0.00 0.00 0.08 76 1013.6
20200531062740 51 224 3.5 8.7 0.00 0.00 0.08 76 1013.8
20200531061740 51 187 2.6 4.3 0.00 0.00 0.08 76 1013.8
20200531060740 51 51 0.0 8.7 0.00 0.00 0.08 76 1013.6
20200531055740 51 278 3.5 15.6 0.00 0.00 0.08 75 1013.9
20200531054740 51 190 1.7 9.6 0.00 0.00 0.08 76 1013.8
20200531053740 51 137 0.0 10.4 0.00 0.00 0.08 76 1013.6
20200531052740 51 169 0.0 7.8 0.00 0.00 0.08 76 1013.8
20200531051740 51 222 4.3 7.0 0.00 0.00 0.08 76 1013.7
20200531050740 51 214 1.7 4.3 0.00 0.00 0.08 77 1013.7
20200531045740 51 117 0.0 5.2 0.00 0.00 0.08 77 1013.7
20200531044740 51 84 0.0 8.7 0.00 0.00 0.08 77 1013.5
20200531043740 51 201 7.8 8.7 0.00 0.00 0.08 77 1013.5
20200531042740 51 210 0.9 6.1 0.00 0.00 0.08 75 1013.5
20200531041740 51 89 0.0 7.8 0.00 0.00 0.08 76 1013.3
20200531040742 51 253 1.7 7.0 0.00 0.00 0.08 75 1013.5
20200531035741 51 195 2.6 17.4 0.00 0.00 0.08 75 1013.3
20200531034740 51 207 0.0 18.2 0.00 0.00 0.08 75 1013.5
20200531033740 51 3 3.5 16.5 0.00 0.00 0.08 73 1013.2
20200531032741 51 165 3.5 8.7 0.00 0.00 0.08 73 1012.8
20200531031741 52 300 0.9 9.6 0.00 0.00 0.08 70 1012.5
20200531025741 52 33 2.6 5.2 0.00 0.00 0.08 75 1012.5
20200531024740 52 65 5.2 7.0 0.00 0.00 0.08 76 1012.4
20200531023740 52 186 3.5 9.6 0.00 0.00 0.08 76 1012.6
20200531022740 52 141 4.3 11.3 0.00 0.00 0.08 76 1013.0
20200531021740 51 51 0.9 12.2 0.00 0.00 0.08 77 1012.2
20200531020741 51 184 0.9 11.3 0.00 0.00 0.08 79 1012.3
20200531015740 51 135 0.9 11.3 0.00 0.00 0.08 77 1012.4
20200531014740 51 354 0.0 10.4 0.00 0.00 0.08 77 1012.4
20200531013740 52 218 13.9 18.2 0.00 0.00 0.08 75 1012.3
20200531012740 52 236 0.9 11.3 0.00 0.00 0.08 75 1012.0
20200531011740 52 197 0.0 7.0 0.00 0.00 0.08 78 1012.1
20200531010740 51 194 2.6 6.1 0.00 0.00 0.08 79 1011.5
20200531005740 52 198 2.6 7.8 0.00 0.00 0.08 81 1011.4
20200531004740 52 18 6.1 7.0 0.00 0.00 0.08 81 1011.1
20200531003743 52 359 1.7 7.0 0.00 0.00 0.08 82 1011.0
20200531002758 52 253 6.1 13.0 0.00 0.00 0.08 82 1011.2
20200531001750 53 272 1.7 17.4 0.00 0.00 0.08 81 1011.3
20200531000749 53 124 0.9 13.0 0.00 0.00 0.08 79 1011.0
20200530235743 53 44 0.0 11.3 0.00 0.00 0.08 81 1010.5
20200530234743 52 91 0.9 12.2 0.00 0.00 0.08 82 1010.2
20200530233744 53 30 4.3 15.6 0.00 0.00 0.08 83 1009.7
20200530232740 52 51 1.7 7.8 0.00 0.00 0.07 85 1010.9
20200530231741 52 333 0.9 10.4 0.00 0.00 0.07 87 1008.7
20200530230740 52 52 3.5 11.3 0.00 0.00 0.07 85 1008.7
20200530225740 53 180 6.1 20.9 0.00 0.00 0.06 82 1008.5
20200530224741 54 218 0.9 25.2 0.00 0.00 0.02 78 1010.6
20200530223740 54 167 12.2 20.9 0.00 0.00 0.00 75 1010.0
20200530222740 55 161 3.5 19.1 0.00 0.00 0.00 72 1009.8
20200530221741 56 29 0.9 11.3 0.00 0.00 0.00 72 1009.9
20200530220741 56 6 1.7 7.8 0.00 0.00 0.00 72 1009.0
20200530215741 56 86 3.5 12.2 0.00 0.00 0.00 73 1008.2
20200530214741 57 113 0.9 10.4 0.00 0.00 0.00 70 1008.0
20200530213740 58 208 6.1 8.7 0.00 0.00 0.00 69 1007.8
20200530212741 59 58 1.7 9.6 0.00 0.00 0.00 69 1007.5
20200530211741 60 64 0.9 11.3 0.00 0.00 0.00 66 1007.3
20200530210741 60 244 3.5 11.3 0.00 0.00 0.00 65 1007.5
20200530205741 62 124 1.7 14.8 0.00 0.00 0.00 65 1007.1
20200530204741 62 158 7.8 18.2 0.00 0.00 0.00 63 1007.1
20200530203741 63 208 1.7 20.9 0.00 0.00 0.00 64 1006.8
20200530202741 64 231 7.8 11.3 0.00 0.00 0.00 61 1007.0
20200530201741 66 314 0.9 10.4 0.00 0.00 0.00 62 1006.7
20200530200741 67 104 2.6 10.4 0.00 0.00 0.00 59 1006.0
20200530195741 69 235 4.3 7.8 0.00 0.00 0.00 60 1005.9
20200530194740 69 250 3.5 14.8 0.00 0.00 0.00 60 1005.6
20200530193741 71 67 0.9 13.0 0.00 0.00 0.00 58 1005.3
20200530192741 73 226 3.5 13.0 0.00 0.00 0.00 55 1005.3
20200530191741 76 267 5.2 9.6 0.00 0.00 0.00 54 1005.2
20200530190740 78 86 4.3 7.0 0.00 0.00 0.00 53 1005.1
20200530185741 78 111 0.0 8.7 0.00 0.00 0.00 56 1004.8
20200530184741 77 267 1.7 5.2 0.00 0.00 0.00 57 1004.7
20200530183746 77 60 0.0 3.5 0.00 0.00 0.00 58 1004.7
20200530182741 75 204 0.0 3.5 0.00 0.00 0.00 62 1004.7
20200530181741 74 156 0.0 2.6 0.00 0.00 0.00 61 1004.8
20200530180741 74 148 0.0 3.5 0.00 0.00 0.00 66 1004.9
20200530175741 73 136 0.0 2.6 0.00 0.00 0.00 66 1005.0
20200530174741 71 155 0.0 3.5 0.00 0.00 0.00 69 1005.2
20200530173741 70 136 1.7 2.6 0.00 0.00 0.00 70 1005.4
20200530172741 70 143 0.0 1.7 0.00 0.00 0.00 70 1005.6
20200530171741 70 99 0.0 1.7 0.00 0.00 0.00 69 1005.7
20200530170741 70 8 0.0 0.9 0.00 0.00 0.00 70 1005.9
20200530165741 69 49 0.0 3.5 0.00 0.00 0.00 67 1006.1
20200530164741 70 27 3.5 2.6 0.00 0.00 0.00 70 1006.4
20200530163741 69 39 0.0 0.9 0.00 0.00 0.00 69 1006.6
20200530162741 69 34 0.0 2.6 0.00 0.00 0.00 68 1006.5
20200530161741 69 29 0.0 2.6 0.00 0.00 0.00 68 1006.7
20200530160741 69 76 1.7 2.6 0.00 0.00 0.00 70 1007.0
20200530155741 68 27 0.0 3.5 0.00 0.00 0.00 70 1007.0
20200530154741 67 79 0.0 0.9 0.00 0.00 0.00 73 1007.3
20200530153741 66 113 0.0 2.6 0.00 0.00 0.00 73 1007.5
20200530152741 66 141 0.9 3.5 0.00 0.00 0.00 72 1007.4
20200530151741 66 115 1.7 3.5 0.00 0.00 0.00 73 1007.2
20200530150741 66 116 0.0 1.7 0.00 0.00 0.00 75 1007.4
20200530145741 66 23 0.0 2.6 0.00 0.00 0.00 78 1007.3
20200530144741 65 214 0.0 4.3 0.00 0.00 0.00 78 1007.3
20200530143741 65 4 0.0 5.2 0.00 0.00 0.00 71 1007.7
20200530142741 65 221 0.0 3.5 0.00 0.00 0.00 70 1007.8
20200530141741 64 122 3.5 4.3 0.00 0.00 0.00 74 1007.9
20200530140741 64 6 2.6 11.3 0.00 0.00 0.00 76 1008.1
20200530135741 61 277 0.0 4.3 0.00 0.00 0.00 86 1008.4
20200530134741 61 20 0.9 2.6 0.00 0.00 0.00 86 1008.0
20200530133741 61 222 0.0 0.9 0.00 0.00 0.00 87 1007.6
20200530132741 60 220 0.0 1.7 0.00 0.00 0.00 87 1007.1
20200530131741 60 212 0.0 1.7 0.00 0.00 0.00 88 1007.0
20200530130741 59 161 0.9 1.7 0.00 0.00 0.00 89 1007.0
20200530125741 59 236 0.0 0.9 0.00 0.00 0.00 89 1007.2
20200530124741 59 124 0.0 0.9 0.00 0.00 0.00 89 1007.3
20200530123741 59 18 0.0 0.0 0.00 0.00 0.00 88 1007.4
20200530122741 59 18 0.0 0.9 0.00 0.00 0.00 88 1007.5
20200530121741 59 18 0.0 0.0 0.00 0.00 0.00 88 1007.4
20200530120741 59 135 0.0 0.9 0.00 0.00 0.00 88 1007.5
20200530115741 59 188 0.9 0.9 0.00 0.00 0.00 87 1007.6
20200530114741 59 212 0.0 1.7 0.00 0.00 0.00 88 1007.7
20200530113741 59 158 0.9 2.6 0.00 0.00 0.00 89 1007.7
20200530112741 59 243 0.0 0.0 0.00 0.00 0.00 89 1007.6
20200530111741 59 64 0.0 0.0 0.00 0.00 0.00 87 1007.6
20200530110741 59 163 0.0 0.0 0.00 0.00 0.00 89 1007.7
20200530105741 59 208 0.0 0.9 0.00 0.00 0.00 88 1007.4
20200530104741 59 240 0.9 0.9 0.00 0.00 0.00 89 1007.3
20200530103741 59 139 0.0 0.9 0.00 0.00 0.00 88 1007.6
20200530102741 59 16 0.0 2.6 0.00 0.00 0.00 88 1007.6
20200530101741 59 191 0.0 0.9 0.00 0.00 0.00 87 1007.5
20200530100741 60 191 0.0 3.5 0.00 0.00 0.00 88 1007.8
20200530095741 60 153 0.0 0.9 0.00 0.00 0.00 87 1007.6
20200530094741 60 211 0.0 0.9 0.00 0.00 0.00 87 1007.8
20200530093741 60 46 0.0 0.9 0.00 0.00 0.00 86 1007.8
20200530092741 60 46 0.9 2.6 0.00 0.00 0.00 86 1008.2
20200530090741 61 146 0.9 1.7 0.00 0.00 0.00 84 1008.2
20200530085742 62 214 0.0 1.7 0.00 0.00 0.00 83 1008.5
20200530084741 62 205 1.7 1.7 0.00 0.00 0.00 84 1008.8
20200530083741 62 165 0.0 0.9 0.00 0.00 0.00 84 1008.8
20200530082741 62 123 0.0 0.9 0.00 0.00 0.00 84 1008.9
20200530081742 62 123 0.0 0.9 0.00 0.00 0.00 83 1008.9
20200530080741 62 186 0.0 0.9 0.00 0.00 0.00 83 1008.9